Regional Weather Roundup
Issued by NWS Columbia, SC

Home | Current Version | Previous Version | Text Only | Print | Product List | Glossary On
Versions: 1 2 3 4 5 6 7 8 9 10 11 12 13 14 15 16 17 18 19 20 21 22 23 24 25 26 27 28 29 30 31 32 33 34 35 36 37 38 39 40 41 42 43 44 45 46 47 48 49 50
000
ASUS42 KCAE 012310
RWRCAE
REGIONAL WEATHER ROUNDUP
NATIONAL WEATHER SERVICE COLUMBIA SC
700 PM EDT WED OCT 01 2014

NOTE: "FAIR" INDICATES FEW OR NO CLOUDS BELOW 12,000 FEET WITH NO
SIGNIFICANT WEATHER AND/OR OBSTRUCTIONS TO VISIBILITY.

NOT ALL STATIONS ARE QUALITY CONTROLLED BY THE NATIONAL
WEATHER SERVICE. USE DATA WITH CAUTION...ESPECIALLY
DEWPOINT OBSERVATIONS.

SCZ001>056-GAZ040-063>065-077-020000-
...UPSTATE SOUTH CAROLINA...

CITY           SKY/WX    TMP DP  RH WIND       PRES   REMARKS
ANDERSON       CLEAR     79  60  52 CALM      29.98S
LIBERTY        FAIR      78  64  62 MISG      29.99R
SPARTANBURG    FAIR      77  64  65 CALM      29.99R
CLEMSON        CLEAR     79  60  52 CALM      30.00R
GREENVILLE     CLOUDY    80  55  42 SW5       30.00R
GREENWOOD      CLEAR     75  64  68 CALM      30.00R
GREER          CLOUDY    77  64  64 S3        29.98S
ROCK HILL      CLEAR     74  65  73 CALM      30.00R
CHESTER        FAIR      75  59  57 CALM      30.04R
LAURENS        FAIR      77  55  47 CALM      30.00R


...CENTRAL SOUTH CAROLINA...

CITY           SKY/WX    TMP DP  RH WIND       PRES   REMARKS
COLUMBIA APT   PTCLDY    81  60  48 SE6       29.96R
COLUMBIA OWENS MOCLDY    79  64  60 CALM      29.97S
DARLINGTON     CLOUDY    75  66  73 CALM      29.99R
FLORENCE       CLEAR     78  67  68 CALM      29.98R
MCENTIRE ANGB  PTCLDY    75  69  79 CALM      29.98R
ORANGEBURG     CLEAR     78  62  57 SE5       29.98R
SUMTER SHAW    MOCLDY    78  64  61 S3        29.97R
NEWBERRY       FAIR      75  63  64 SE3       30.01R
AIKEN          FAIR      79  64  61 SE3       30.01S
BARNWELL       FAIR      81  63  54 SE6       29.98R
MANNING        FAIR      77  72  83 CALM      29.98R
CAMDEN         FAIR      79  64  61 CALM      29.99R
LANCASTER      FAIR      75  68  78 CALM      29.99R
WINNSBORO      FAIR      79  63  57 CALM      29.98S


...EASTERN AND COASTAL SOUTH CAROLINA...

CITY           SKY/WX    TMP DP  RH WIND       PRES   REMARKS
MYRTLE BEACH   PTCLDY    75  64  69 S8        29.98S
N MYRTLE BCH   CLEAR     75  66  73 S5        29.98R
CONWAY         FAIR      72  68  88 CALM      29.98R
MARION         FAIR      73  68  83 CALM      29.98
HARTSVILLE     MOCLDY    79  46  31 CALM      29.99S
FLORENCE       CLEAR     78  67  68 CALM      29.98R
DARLINGTON     CLOUDY    75  66  73 CALM      29.99R
CHARLESTON APT PTCLDY    77  62  59 SE6       29.99R
MOUNT PLEASANT FAIR      72  66  83 CALM      29.99S
WALTERBORO     CLEAR     79  63  57 SE3       29.99R
BEAUFORT       PTCLDY    78  69  73 CALM      29.99R


...EASTERN GEORGIA...

CITY           SKY/WX    TMP DP  RH WIND       PRES   REMARKS
AUGUSTA BUSH F CLEAR     76  63  64 SE6       29.96R
AUGUSTA DANIEL CLEAR     82  60  47 SE5       29.98R
THOMSON        CLEAR     77  74  90 CALM      30.01S
WASHINGTON     FAIR      81  70  69 CALM      29.98S
CLAXTON        FAIR      77  72  83 CALM      29.97R
SYLVANIA       CLEAR     78  72  81 CALM      29.98S
STATESBORO     CLEAR     78  68  71 CALM      29.97S
SAVANNAH       PTCLDY    79  63  57 SE7       29.98R


...SOUTHERN NORTH CAROLINA...

CITY           SKY/WX    TMP DP  RH WIND       PRES   REMARKS
CHARLOTTE      PTCLDY    78  57  48 N3        30.00R
MONROE         CLEAR     76  61  59 CALM      29.99R
WADESBORO      PTCLDY    77  66  68 NE3       29.99R
ROCKINGHAM     PTCLDY    76  65  70 E3        29.99R
RUTHERFORDTON  CLEAR     77  62  58 CALM      30.00S
ASHEVILLE      MOCLDY    71  60  68 CALM      30.05R

$$



USA.gov is the U.S. government's official web portal to all federal, state and local government web resources and services.